Weather History for Eastsound, WA

Change the Weather History Date:

Sunday, March 3, 2013

  Actual Average (KBLI) Record (KBLI)
Temperature  
Mean Temperature 39 °F 42 °F  
Max Temperature 46 °F 50 °F 62 °F (1965)
Min Temperature 32 °F 34 °F 15 °F (1989)
Degree Days  
Heating Degree Days 26 23  
Month to date heating degree days 69  
Cooling Degree Days 0 0  
Month to date cooling degree days 0  
Year to date cooling degree days 0  
Moisture  
Dew Point 34 °F    
Average Humidity 82    
Maximum Humidity 100    
Minimum Humidity 57    
Precipitation  
Precipitation 0.00 in 0.11 in 0.79 in (1950)
Month to date precipitation 0.33  
Year to date precipitation 8.02  
Sea Level Pressure  
Sea Level Pressure 30.24 in    
Wind  
Wind Speed 4 mph (WNW)    
Max Wind Speed 12 mph    
Max Gust Speed -    
Visibility 10 miles    
Events      
T = Trace of Precipitation, MM = Missing Value Source: NWS Daily Summary

Daily Weather History Graph

Daily Weather History Graph

Search for Another Location

Airport:

Trip Planner

Search our weather history database for the weather conditions in past years. The results will help you decide how hot, cold, wet, or windy it might be!

Date:

Astronomy

Mar. 03, 2013 Rise Set
Actual Time 6:48 AM PST 5:59 PM PST
Civil Twilight 6:17 AM PST 6:30 PM PST
Nautical Twilight 5:40 AM PST 7:07 PM PST
Astronomical Twilight 5:04 AM PST 7:43 PM PST
Moon 12:15 AM PST (3/3) 9:35 AM PST (3/3)
Length of Visible Light 12h 13m
Length of Day
11h 10m
Waning Gibbous, 62% of the Moon is Illuminated
Mar 3
Waning Gibbous
Mar 4
Last Quarter
Mar 11
New
Mar 19
First Quarter
Mar 27
Full

Hourly Weather History & Observations

Time (PST) Temp. Windchill Dew Point Humidity Pressure Visibility Wind Dir Wind Speed Gust Speed Precip Events Conditions
12:15 AM 37.4 °F 32.1 °F 35.6 °F 93% 30.15 in 10.0 mi SSW 6.9 mph - N/A   Clear
12:35 AM 37.4 °F 32.8 °F 33.8 °F 87% 30.16 in 10.0 mi South 5.8 mph - N/A   Clear
12:55 AM 37.4 °F 32.1 °F 33.8 °F 87% 30.16 in 10.0 mi SW 6.9 mph - N/A   Clear
1:15 AM 41.0 °F 38.0 °F 32.0 °F 70% 30.17 in 10.0 mi WSW 4.6 mph - N/A   Clear
1:35 AM 41.0 °F 38.0 °F 32.0 °F 70% 30.17 in 10.0 mi West 4.6 mph - N/A   Clear
1:55 AM 41.0 °F 39.0 °F 32.0 °F 70% 30.18 in 10.0 mi WSW 3.5 mph - N/A   Clear
2:15 AM 39.2 °F 37.0 °F 32.0 °F 75% 30.18 in 10.0 mi SW 3.5 mph - N/A   Clear
2:35 AM 37.4 °F 34.9 °F 32.0 °F 81% 30.18 in 10.0 mi SSW 3.5 mph - N/A   Clear
3:15 AM 35.6 °F - 32.0 °F 87% 30.19 in 10.0 mi Calm Calm - N/A   Partly Cloudy
3:35 AM 35.6 °F - 32.0 °F 87% 30.19 in 10.0 mi Calm Calm - N/A   Clear
3:55 AM 33.8 °F - 32.0 °F 93% 30.20 in 10.0 mi Calm Calm - N/A   Clear
4:35 AM 33.8 °F - 32.0 °F 93% 30.20 in 10.0 mi Calm Calm - N/A   Partly Cloudy
5:15 AM 33.8 °F - 32.0 °F 93% 30.20 in 10.0 mi Calm Calm - N/A   Partly Cloudy
5:35 AM 33.8 °F - 32.0 °F 93% 30.21 in 10.0 mi Calm Calm - N/A   Clear
5:55 AM 35.6 °F - 33.8 °F 93% 30.22 in 10.0 mi Calm Calm - N/A   Clear
6:15 AM 32.0 °F 27.5 °F 32.0 °F 100% 30.22 in 10.0 mi SSW 4.6 mph - N/A   Partly Cloudy
6:35 AM 33.8 °F 29.6 °F 32.0 °F 93% 30.22 in 10.0 mi South 4.6 mph - N/A   Scattered Clouds
6:55 AM 35.6 °F - 33.8 °F 93% 30.22 in 10.0 mi North - - N/A   Mostly Cloudy
7:15 AM 35.6 °F - 33.8 °F 93% 30.23 in 10.0 mi Calm Calm - N/A   Mostly Cloudy
7:35 AM 35.6 °F - 32.0 °F 87% 30.23 in 10.0 mi Calm Calm - N/A   Mostly Cloudy
7:55 AM 39.2 °F - 32.0 °F 75% 30.23 in 10.0 mi Calm Calm - N/A   Partly Cloudy
8:15 AM 37.4 °F 32.8 °F 35.6 °F 93% 30.23 in 10.0 mi SSW 5.8 mph - N/A   Clear
8:35 AM 39.2 °F 34.2 °F 32.0 °F 75% 30.23 in 10.0 mi SW 6.9 mph - N/A   Clear
8:55 AM 41.0 °F 39.0 °F 33.8 °F 76% 30.23 in 10.0 mi SSW 3.5 mph - N/A   Partly Cloudy
9:15 AM 41.0 °F - 32.0 °F 70% 30.24 in 10.0 mi Calm Calm - N/A   Mostly Cloudy
9:35 AM 41.0 °F - 32.0 °F 70% 30.24 in 10.0 mi Calm Calm - N/A   Overcast
9:55 AM 42.8 °F 41.1 °F 32.0 °F 66% 30.24 in 10.0 mi NW 3.5 mph - N/A   Overcast
10:15 AM 44.6 °F 40.7 °F 32.0 °F 61% 30.24 in 10.0 mi NW 6.9 mph - N/A   Mostly Cloudy
10:35 AM 44.6 °F 40.7 °F 32.0 °F 61% 30.24 in 10.0 mi West 6.9 mph - N/A   Mostly Cloudy
10:55 AM 42.8 °F 38.6 °F 32.0 °F 66% 30.24 in 10.0 mi NW 6.9 mph - N/A   Mostly Cloudy
11:15 AM 42.8 °F - 33.8 °F 70% 30.25 in 10.0 mi Calm Calm - N/A   Mostly Cloudy
11:35 AM 44.6 °F 43.1 °F 32.0 °F 61% 30.25 in 10.0 mi North 3.5 mph - N/A   Mostly Cloudy
11:55 AM 46.4 °F 44.3 °F 32.0 °F 57% 30.25 in 10.0 mi NNW 4.6 mph - N/A   Mostly Cloudy
12:15 PM 44.6 °F 41.4 °F 32.0 °F 61% 30.25 in 10.0 mi NNW 5.8 mph - N/A   Scattered Clouds
12:35 PM 44.6 °F 41.4 °F 37.4 °F 76% 30.25 in 10.0 mi NNW 5.8 mph - N/A   Scattered Clouds
12:55 PM 44.6 °F 40.2 °F 35.6 °F 71% 30.25 in 10.0 mi NNW 8.1 mph - N/A   Partly Cloudy
1:15 PM 44.6 °F 39.7 °F 35.6 °F 71% 30.25 in 10.0 mi NNW 9.2 mph - N/A   Partly Cloudy
1:35 PM 44.6 °F 40.2 °F 37.4 °F 76% 30.25 in 10.0 mi North 8.1 mph - N/A   Scattered Clouds
1:55 PM 46.4 °F 42.9 °F 37.4 °F 71% 30.26 in 10.0 mi North 6.9 mph - N/A   Mostly Cloudy
2:15 PM 44.6 °F 39.7 °F 37.4 °F 76% 30.25 in 10.0 mi North 9.2 mph - N/A   Scattered Clouds
2:35 PM 44.6 °F 40.2 °F 35.6 °F 71% 30.26 in 10.0 mi North 8.1 mph - N/A   Clear
2:55 PM 46.4 °F 41.5 °F 37.4 °F 71% 30.26 in 10.0 mi North 10.4 mph - N/A   Partly Cloudy
3:15 PM 44.6 °F 38.8 °F 35.6 °F 71% 30.26 in 10.0 mi North 11.5 mph - N/A   Partly Cloudy
3:35 PM 44.6 °F 39.7 °F 35.6 °F 71% 30.26 in 10.0 mi North 9.2 mph - N/A   Scattered Clouds
3:55 PM 44.6 °F 41.4 °F 35.6 °F 71% 30.26 in 10.0 mi NNW 5.8 mph - N/A   Scattered Clouds
4:15 PM 44.6 °F 43.1 °F 35.6 °F 71% 30.26 in 10.0 mi NNW 3.5 mph - N/A   Partly Cloudy
4:35 PM 44.6 °F 43.1 °F 35.6 °F 71% 30.26 in 10.0 mi NNW 3.5 mph - N/A   Clear
4:55 PM 42.8 °F - 35.6 °F 76% 30.26 in 10.0 mi Calm Calm - N/A   Clear
5:15 PM 42.8 °F - 35.6 °F 76% 30.26 in 10.0 mi Calm Calm - N/A   Clear
5:35 PM 41.0 °F - 35.6 °F 81% 30.27 in 10.0 mi Calm Calm - N/A   Clear
5:55 PM 39.2 °F - 35.6 °F 87% 30.27 in 10.0 mi Calm Calm - N/A   Clear
6:15 PM 39.2 °F - 35.6 °F 87% 30.27 in 10.0 mi Calm Calm - N/A   Clear
6:35 PM 37.4 °F - 35.6 °F 93% 30.28 in 10.0 mi Calm Calm - N/A   Clear
6:55 PM 37.4 °F - 35.6 °F 93% 30.28 in 10.0 mi North - - N/A   Clear
7:15 PM 37.4 °F - 35.6 °F 93% 30.28 in 10.0 mi Calm Calm - N/A   Clear
7:35 PM 35.6 °F - 35.6 °F 100% 30.28 in 10.0 mi Calm Calm - N/A   Clear
7:55 PM 35.6 °F - 35.6 °F 100% 30.28 in 10.0 mi Calm Calm - N/A   Clear
8:15 PM 35.6 °F - 35.6 °F 100% 30.28 in 10.0 mi Calm Calm - N/A   Clear
8:35 PM 35.6 °F - 33.8 °F 93% 30.28 in 10.0 mi Calm Calm - N/A   Clear
8:55 PM 35.6 °F - 35.6 °F 100% 30.29 in 10.0 mi North - - N/A   Clear
9:15 PM 35.6 °F - 33.8 °F 93% 30.29 in 10.0 mi Calm Calm - N/A   Clear
9:35 PM 35.6 °F - 33.8 °F 93% 30.29 in 10.0 mi Calm Calm - N/A   Clear
10:15 PM 33.8 °F - 32.0 °F 93% 30.30 in 10.0 mi Calm Calm - N/A   Clear
10:55 PM 33.8 °F - 32.0 °F 93% 30.30 in 10.0 mi Calm Calm - N/A   Clear
11:15 PM 33.8 °F - 33.8 °F 100% 30.29 in 10.0 mi Calm Calm - N/A   Clear
11:35 PM 32.0 °F - 32.0 °F 100% 30.29 in 10.0 mi Calm Calm - N/A   Clear
11:55 PM 32.0 °F - 32.0 °F 100% 30.29 in 10.0 mi North - - N/A   Clear